TimeEST,TemperatureF,Dew PointF,Humidity,Sea Level PressureIn,VisibilityMPH,Wind Direction,Wind SpeedMPH,Gust SpeedMPH,PrecipitationIn,Events,Conditions,WindDirDegrees,DateUTC
12:53 AM,27.0,16.0,63,30.11,10.0,Calm,Calm,-,N/A,,Overcast,0,2013-03-05 05:53:00
2:53 AM,28.0,17.1,63,30.07,10.0,East,5.8,-,N/A,,Overcast,90,2013-03-05 07:53:00
3:53 AM,28.0,16.0,61,30.04,10.0,East,9.2,-,N/A,,Overcast,100,2013-03-05 08:53:00
4:53 AM,27.0,16.0,63,30.03,10.0,East,6.9,-,N/A,,Overcast,90,2013-03-05 09:53:00
5:53 AM,27.0,17.1,66,30.03,10.0,East,6.9,-,N/A,,Overcast,100,2013-03-05 10:53:00
6:53 AM,27.0,17.1,66,30.02,10.0,East,6.9,-,N/A,,Overcast,90,2013-03-05 11:53:00
7:53 AM,26.6,17.6,69,29.98,10.0,East,9.2,18.4,N/A,,Mostly Cloudy,100,2013-03-05 12:53:00
8:53 AM,27.0,17.1,66,30.01,10.0,East,12.7,19.6,N/A,,Mostly Cloudy,100,2013-03-05 13:53:00
9:53 AM,28.0,18.0,66,30.00,10.0,East,11.5,17.3,N/A,,Mostly Cloudy,90,2013-03-05 14:53:00
10:53 AM,28.0,19.0,69,29.98,10.0,East,9.2,18.4,N/A,,Mostly Cloudy,100,2013-03-05 15:53:00
11:53 AM,28.0,19.0,69,29.96,10.0,East,10.4,-,N/A,,Overcast,100,2013-03-05 16:53:00
12:53 PM,30.9,19.9,64,29.94,10.0,East,12.7,18.4,N/A,,Overcast,100,2013-03-05 17:53:00
1:53 PM,33.1,19.0,56,29.88,10.0,East,8.1,17.3,N/A,,Overcast,80,2013-03-05 18:53:00
2:53 PM,34.0,18.0,52,29.85,10.0,East,12.7,19.6,N/A,,Overcast,80,2013-03-05 19:53:00
3:53 PM,35.1,19.9,54,29.83,10.0,East,11.5,18.4,N/A,,Overcast,80,2013-03-05 20:53:00
4:53 PM,36.0,19.9,52,29.82,10.0,ENE,4.6,-,N/A,,Overcast,60,2013-03-05 21:53:00
5:53 PM,35.1,19.9,54,29.83,10.0,NNE,8.1,-,N/A,,Overcast,30,2013-03-05 22:53:00
6:53 PM,34.0,24.1,67,29.85,9.0,NNE,9.2,-,0.00,Snow,Light Snow,20,2013-03-05 23:53:00
7:53 PM,30.9,24.1,76,29.86,4.0,NNE,13.8,23.0,0.00,Snow,Light Snow,20,2013-03-06 00:53:00
8:10 PM,30.2,24.8,80,29.82,1.8,NNE,15.0,20.7,0.00,Snow,Light Snow,20,2013-03-06 01:10:00
8:49 PM,28.4,24.8,86,29.82,0.5,NNE,11.5,23.0,0.00,Fog-Snow,Snow,30,2013-03-06 01:49:00
8:53 PM,28.9,26.1,89,29.86,0.5,NNE,11.5,-,0.00,Fog-Snow,Snow,20,2013-03-06 01:53:00
9:12 PM,28.4,24.8,86,29.83,1.2,NNE,15.0,21.9,0.00,Snow,Light Snow,30,2013-03-06 02:12:00
9:22 PM,28.4,24.8,86,29.83,1.8,NE,11.5,20.7,0.00,Snow,Light Snow,40,2013-03-06 02:22:00
9:35 PM,28.4,23.0,80,29.84,2.5,NNE,9.2,20.7,0.00,Snow,Light Snow,30,2013-03-06 02:35:00
9:43 PM,28.4,23.0,80,29.84,4.0,NNE,10.4,-,0.00,Snow,Light Snow,20,2013-03-06 02:43:00
9:53 PM,28.9,21.9,75,29.88,8.0,NNE,18.4,25.3,0.00,,Overcast,20,2013-03-06 02:53:00
10:53 PM,28.0,21.9,78,29.90,10.0,NNE,12.7,24.2,N/A,,Overcast,30,2013-03-06 03:53:00
11:24 PM,28.4,23.0,80,29.87,5.0,NNE,15.0,23.0,0.00,Snow,Light Snow,20,2013-03-06 04:24:00
11:53 PM,27.0,23.0,85,29.91,9.0,NNE,15.0,23.0,0.00,,Overcast,20,2013-03-06 04:53:00